Strona główna
METAR-TAF:

METAR-TAF

Lotnisko :

Faith Municipal Airport

Faith, Dakota Południowa, Stany Zjednoczone

Szerokość geograficzna: 45-01-55N, Długość geograficzna: 102-01-09W, wysokość: 787 m

Aktualna obserwacja pogody

Raport powstał 19 minut temu, godzina 04:56 UTC
Wiatr 4 kt od południowy zachód
Temperatura -2°C
Wilgotność 74%
Ciśnienie 1008 hPa

METAR: KD07 170456Z AUTO 22004KT M02/M06 A2976 RMK AO1 SLP112 T10221056

czas: 22:15 (05:15 UTC)


TAF: brakujący

Obserwacja i prognoza pogody dla ponad 4000 lotnisk (raport METAR i TAF).

Dostępne stacje oznaczono żółtymi i czerwonymi punktami na mapie.

Najedź kursorem aby zobaczyć nazwę stacji.

Kliknij aby zobaczyć obserwacje i prognozy pogody.

Aby zmienić mapę: kliknij na zielony przycisk z czarnym krzyżykiem, aby powiększyć; na zielony przycisk z myślnikiem, aby pomniejszyć; na zielone strzałki, aby przejść do map sąsiednich.


METAR-TAF: